This is the latest recevied weather packets stored in our database for station/object N2ZVN. If no packets are shown the sender has not sent any weather packets the latest 10 day(s).
| Time | Temp. | Humidity | Pressure | Rain* | Wind** | Luminosity | Snow |
|---|---|---|---|---|---|---|---|
| 1788070272 | 17.22° C | 89% | 1020.5 hPa | 0 mm | - | 0 W/m² | - |
| 1788069969 | 17.22° C | 88% | 1020.5 hPa | 0 mm | - | 0 W/m² | - |
| 1788069664 | 17.22° C | 87% | 1020.8 hPa | 0 mm | - | 0 W/m² | - |
| 1788069359 | 17.22° C | 86% | 1020.6 hPa | 0 mm | - | 0 W/m² | - |
| 1788069056 | 17.22° C | 87% | 1020.8 hPa | 0 mm | - | 0 W/m² | - |
| 1788068750 | 17.22° C | 85% | 1020.7 hPa | 0 mm | - | 0 W/m² | - |
| 1788068446 | 17.22° C | 87% | 1020.9 hPa | 0 mm | - | 0 W/m² | - |
| 1788068141 | 17.22° C | 87% | 1020.7 hPa | 0 mm | - | 0 W/m² | - |
| 1788067841 | 17.22° C | 86% | 1020.8 hPa | 0 mm | - | 0 W/m² | - |
| 1788067536 | 17.22° C | 86% | 1020.8 hPa | 0 mm | - | 0 W/m² | - |
| 1788067236 | 17.22° C | 87% | 1020.9 hPa | 0 mm | - | 0 W/m² | - |
| 1788066931 | 17.22° C | 85% | 1020.8 hPa | 0 mm | - | 0 W/m² | - |
| 1788066627 | 17.22° C | 85% | 1020.7 hPa | 0 mm | - | 0 W/m² | - |
| 1788066321 | 17.22° C | 87% | 1020.7 hPa | 0 mm | - | 0 W/m² | - |
| 1788066021 | 17.78° C | 85% | 1020.6 hPa | 0 mm | - | 0 W/m² | - |
| 1788065719 | 17.78° C | 83% | 1020.6 hPa | 0 mm | - | 0 W/m² | - |
| 1788065415 | 17.78° C | 85% | 1020.9 hPa | 0 mm | - | 0 W/m² | - |
| 1788065109 | 17.78° C | 84% | 1020.7 hPa | 0 mm | - | 0 W/m² | - |
| 1788064804 | 17.78° C | 83% | 1020.6 hPa | 0 mm | - | 0 W/m² | - |
| 1788064499 | 17.78° C | 83% | 1020.6 hPa | 0 mm | - | 0 W/m² | - |
| 1788064198 | 17.78° C | 83% | 1020.6 hPa | 0 mm | - | 0 W/m² | - |
| 1788063897 | 17.22° C | 84% | 1020.6 hPa | 0 mm | - | 0 W/m² | - |
| 1788063596 | 17.22° C | 88% | 1020.8 hPa | 0 mm | - | 0 W/m² | - |
| 1788063296 | 17.22° C | 89% | 1020.7 hPa | 0 mm | - | 0 W/m² | - |
| 1788062990 | 17.22° C | 89% | 1020.8 hPa | 0 mm | - | 0 W/m² | - |
* Rain latest hour (hover to see other rain measurements)
** Current wind speed in m/s (hover to see current wind gust speed)